SCP
0 0 0 0 0 0 0 0 0 0 0 0 0 0 0 0 0 0 0 0 0 0 0 0 0 0 0 0 0 0 0 0 0 0 0 0 0 0 0 0 0 0 0 0 0 0 0 0 0 0 0 0 0 0
0 0 0 0 0 0 0 0 0 0 0 0 0 0 0 0 0 0 0 0 0 0 0 0 0 0 0 0 0 0 0 0 0 0 0 0 0 0 0 0 0 0 0 0 0 0 0 0 0 -0 -0 -0 -0 -0
0 0 0 0 0 0 0 0 0 0 0 0 0 0 0 0 0 0 0 0 0 0 0 0 0 0 0 0 0 0 0 0 0 0 0 0 0 0 0 0 0 0 0 0 -0 -0 -0 -0 -0 -0 -0 -0 -0 -0
0 0 0 0 0 0 0 0 0 0 0 0 0 0 0 0 0 0 0 0 0 0 0 0 0 0 0 0 0 0 0 0 0 0 0 0 0 0 0 0 0 0 0 0 0 0 -0 -0 -0 -0 -0 -0 -0 -0
0 0 0 0 0 0 0 0 0 0 0 0 0 0 0 0 0 0 0 0 0 0 0 0 0 0 0 0 0 0 0 0 0 0 0 0 0 0 0 0 0 0 0 0 0 0 0 0 -0 -0 -0 -0 -0 -0
0 0 0 0 0 0 0 0 0 0 0 0 0 0 0 0 0 0 0 0 0 0 0 0 0 0 0 0 0 0 0 0 0 0 0 0 0 0 0 0 0 0 0 0 0 0 0 0 -0 -0 -0 -0 -0 -0
0 0 0 0 0 0 0 0 0 0 0 0 0 0 0 0 0 0 0 0 0 0 0 0 0 0 0 0 0 0 0 0 0 0 0 0 0 0 0 0 0 0 0 0 0 0 0 0 0 0 -0 -0 -0 -0
0 0 0 0 0 0 0 0 0 0 0 0 0 0 0 0 0 0 0 0 0 0 0 0 0 0 0 0 0 0 0 0 0 0 0 0 0 0 0 0 0 0 0 0 0 0 0 0 0 0 0 -0 -0 -0
0 0 0 0 0 0 0 0 0 0 0 0 0 0 0 0 0 0 0 0 0 0 0 0 0 0 0 0 0 0 0 0 0 0 0 0 0 0 0 0 0 0 0 0 0 0 0 0 0 0 0 0 -0 0
0 0 0 0 0 0 0 0 0 0 0 0 0 0 0 0 0 0 0 0 0 0 0 0 0 0 0 0 0 0 0 0 0 0 0 0 0 0 0 0 0 0 0 0 0 0 0 0 0 0 0 0 0 0
0 0 0 0 0 0 0 0 0 0 0 0 0 0 0 0 0 0 0 0 0 0 0 0 0 0 0 0 0 0 0 0 0 0 0 0 0 0 0 0 0 0 0 0 0 0 0 0 0 0 0 0 0 -0
0 0 0 0 0 0 0 0 0 0 0 0 0 0 0 0 0 0 0 0 0 0 0 0 0 0 0 0 0 0 0 0 0 0 0 0 0 0 0 0 0 0 0 0 0 0 0 0 0 0 0 -0 0 0
0 0 0 0 0 0 0 0 0 0 0 0 0 0 0 0 0 0 0 0 0 0 0 0 0 0 0 0 0 0 0 0 0 0 0 0 0 0 0 0 0 0 0 0 0 0 0 0 0 0 0 0 0 -0
0 0 0 0 0 0 -0 0 -0 0 0 0 0 0 0 0 0 0 0 0 0 0 0 0 0 0 0 0 0 0 0 0 0 0 0 0 0 0 0 0 0 0 0 0 0 0 -0 -0 0 0 -0 -0 -0 -0
0 0 0 0 0 -0 0 -0 -0 0 0 0 0 0 0 0 0 0 0 0 0 0 0 0 0 0 0 0 0 0 0 0 0 0 0 0 0 0 0 0 0 0 0 0 -0 -0 -0 -0 -0 -0 -0 -0 -0 -0
0 0 0 0 -0 0 -0 -0 0 0 0 0 0 0 0 0 0 0 0 0 0 0 0 0 0 0 0 0 0 0 0 0 0 0 0 0 0 0 0 0 0 0 -0 -0 -0 -0 -0 -0 -0 -0 -0 0 0 0
0 0 0 -0 -0 0 0 0 0 0 0 0 0 0 0 0 0 0 0 0 0 0 0 0 0 0 0 0 0 0 0 0 0 0 0 0 0 0 0 -0 -0 -0 -0 -0 -0 -0 0 -0 0 -0 -0 -0 -0 0
0 0 0 0 0 0 0 0 0 0 0 0 0 0 0 0 0 0 0 0 0 0 0 0 0 0 0 0 0 0 0 0 0 0 0 0 0 0 -0 -0 -0 -0 -0 -0 0 0 0 0 -0 -0 -0 -0 -0 -0
-0 0 0 0 0 0 0 0 0 0 0 0 0 0 0 0 0 0 0 0 0 0 0 0 0 0 0 0 0 0 0 0 0 0 0 -0 -0 -0 -0 -0 -0 -0 0 0 0 0 0 -0 -0 0 0 0 -0 -0
0 0 0 0 0 0 0 0 0 0 0 0 0 0 0 0 0 0 0 0 0 0 0 0 0 0 0 0 0 0 0 0 0 -0 -0 -0 -0 -0 -0 -0 -0 0 -0 -0 0 0 0 0 0 0 0 0 0 0
0 0 0 0 0 0 0 0 0 0 0 0 0 0 0 0 0 0 0 0 0 0 0 0 0 0 0 0 0 0 0 0 0 -0 -0 -0 0 -0 -0 0 -0 0 0 0 0 0 0 0 0 0 0 0 0 0
0 0 0 0 0 0 0 0 0 0 0 0 0 0 0 0 0 0 0 0 0 0 0 0 0 0 0 0 0 0 0 -0 -0 -0 -0 0 0 -0 -0 0 0 0 0 0 0 0 0 0 -0 -0 -0 -0 -0 0
0 0 0 0 0 0 0 0 0 0 0 0 0 0 0 0 0 0 0 0 0 0 0 0 0 0 0 0 -0 -0 -0 0 0 0 0 0 0 0 0 0 0 0 0 0 0 0 0 -0 -0 -0 -0 -0 0 0
0 0 0 0 0 0 0 0 0 0 0 0 0 0 0 0 0 0 0 0 0 0 0 0 0 -0 -0 -0 0 0 0 0 0 0 0 0 0 0 0 0 0 0 0 0 0 0 0 -0 -0 0 0 0 0 0
0 0 0 0 0 0 0 0 0 0 0 0 0 0 0 0 0 0 0 0 0 0 0 -0 -0 0 -0 0 0 0 0 0 0 0 0 0 0 0 0 0 0 0 0 0 0 0 0 0 0 0 0 0 0 0
-0 0 0 0 0 0 0 0 0 0 0 0 0 0 0 0 0 0 0 0 -0 -0 -0 0 0 -0 -0 -0 0 0 0 0 0 0 0 0 0 -0 0 0 0 0 -0 0 0 0 0 0 0 0 0 0 0 0
0 0 0 0 0 0 0 0 0 0 0 0 0 0 0 0 0 0 -0 -0 -0 0 0 -0 -0 0 0 0 0 0 0 0 0 0 0 0 -0 -0 -0 -0 -0 0 0 0 0 0 0 0 0 0 0 0 0 0
0 0 0 0 0 0 -0 0 0 0 0 0 0 0 0 0 -0 -0 0 -0 -0 -0 -0 0 0 0 0 0 0 0 0 0 0 -0 -0 -0 -0 -0 -0 0 0 0 0 0 0 0 0 0 0 0 0 0 0 0
-0 -0 -0 -0 0 -0 -0 -0 -0 -0 -0 -0 -0 -0 0 -0 0 0 0 0 0 0 0 0 0 0 0 0 0 0 0 -0 0 0 -0 -0 0 0 0 0 0 0 0 0 0 0 0 0 0 0 0 0 0 0
0 0 0 0 0 -0 -0 -0 -0 -0 0 0 0 0 0 0 0 0 0 0 0 0 -0 -0 0 0 0 -0 -0 -0 0 0 0 0 0 0 0 0 0 0 0 0 0 0 0 0 0 0 0 0 0 0 0 0
0 0 0 0 0 -0 -0 -0 -0 -0 -0 0 0 -0 -0 -0 -0 0 0 0 0 0 0 0 0 0 0 0 0 0 0 0 0 0 0 0 0 0 0 0 0 0 0 0 0 0 0 0 0 0 0 0 0 0
-0 0 0 0 0 0 -0 0 -0 -0 -0 -0 -0 -0 -0 -0 -0 0 0 0 0 0 0 0 0 0 0 0 0 0 0 0 0 0 0 0 0 0 0 0 0 0 0 0 0 0 0 0 0 0 0 0 0 0
0 0 0 0 0 0 0 -0 -0 -0 -0 -0 0 -0 -0 -0 -0 -0 0 0 0 0 0 0 0 0 0 0 0 0 0 0 0 0 0 0 0 0 0 0 0 0 0 0 0 0 0 0 0 0 0 0 0 0
Wind_Speed_500mb
49 50 51 46 51 52 61 61 56 55 57 52 49 48 47 44 44 42 52 45 47 37 60 45 34 28 16 12 6 9 11 8 3 3 6 5 5 5 11 18 24 15 11 20 25 41 50 49 16 16 31 46 41 46
51 51 53 55 58 55 49 61 57 54 55 55 51 48 47 45 48 46 55 53 47 51 43 36 40 55 67 66 51 26 18 13 8 3 3 4 10 8 24 24 20 16 5 8 9 15 45 46 51 57 18 22 34 44
54 54 54 54 54 55 58 52 61 61 57 56 53 51 48 47 51 48 53 47 42 45 58 69 59 76 71 67 61 36 31 37 30 37 8 7 7 4 3 8 11 10 26 16 23 25 40 73 61 32 49 47 51 55
59 58 56 55 55 58 55 55 57 63 64 58 55 50 53 53 53 45 50 52 50 24 13 38 45 45 48 45 65 82 80 54 40 33 12 7 6 14 8 12 11 15 22 14 31 34 38 39 43 48 41 46 57 62
62 61 58 54 53 55 57 54 56 59 57 58 58 58 55 53 49 49 49 55 56 51 8 12 26 31 34 42 51 49 57 65 47 18 7 7 11 14 13 14 19 30 34 23 31 47 26 43 57 42 38 38 46 56
61 60 60 58 54 54 60 59 54 54 54 51 48 49 52 48 46 40 39 54 61 69 27 9 30 49 51 61 69 66 64 66 43 18 10 19 52 18 8 9 21 51 68 65 32 42 42 52 46 42 62 70 75 69
61 60 59 60 57 52 58 60 55 53 50 49 51 52 48 47 46 50 19 8 16 38 29 6 6 17 58 53 60 61 58 41 39 28 20 36 39 34 17 27 38 67 65 47 39 42 37 35 31 72 60 72 87 93
59 55 58 59 57 55 55 56 55 54 52 52 53 49 45 44 48 58 61 60 45 32 21 7 4 2 15 13 16 43 36 33 28 30 21 16 26 21 16 24 58 52 48 45 27 25 28 50 60 66 70 68 88 99
60 55 56 61 59 54 55 57 52 50 49 46 44 39 39 44 47 73 64 63 60 58 8 11 9 9 16 17 15 16 19 5 14 11 16 14 11 12 19 35 39 18 13 22 38 39 36 32 66 74 68 78 73 94
61 57 57 58 54 52 53 54 50 46 42 39 37 21 12 21 35 33 17 22 27 21 27 6 13 4 19 14 2 4 11 6 6 10 14 13 24 49 42 14 3 5 16 25 37 33 59 74 67 87 83 75 69 81
57 51 53 56 53 52 52 50 47 43 36 40 25 23 16 17 15 14 13 14 11 5 14 18 23 9 27 7 12 17 5 5 7 10 11 4 6 4 6 5 5 10 18 27 35 45 53 61 74 84 99 91 83 76
51 52 54 51 52 51 50 50 46 44 45 34 18 16 12 15 16 11 6 3 6 11 6 7 15 24 13 16 6 8 7 5 9 3 7 5 11 12 13 16 21 30 41 48 52 62 64 62 69 79 86 84 84 83
48 47 49 51 52 51 52 50 51 48 49 40 16 13 13 12 13 12 15 4 2 6 15 12 4 12 11 13 3 3 10 11 3 3 8 7 10 19 30 37 45 51 58 65 71 72 73 76 73 69 80 82 81 80
48 48 48 48 48 49 49 51 47 48 26 16 14 13 11 8 7 6 7 7 2 3 16 15 4 6 8 5 6 8 8 4 6 6 12 1 17 39 45 53 62 70 71 75 78 80 79 71 74 72 69 72 74 77
38 37 42 46 47 48 45 42 49 51 15 10 10 9 7 9 10 8 14 11 7 5 7 4 1 5 3 3 6 2 5 9 10 10 2 13 37 46 50 57 64 71 75 78 77 77 76 75 72 72 67 64 58 54
32 34 39 35 36 38 37 42 32 36 17 11 6 7 2 6 2 6 10 8 6 4 4 2 3 3 9 7 7 12 9 12 7 1 20 35 45 52 58 59 63 66 67 71 70 68 66 64 63 65 59 49 42 43
27 36 28 27 29 31 41 56 17 9 9 8 2 16 14 15 10 6 5 5 3 3 4 2 7 17 5 5 6 2 7 1 6 28 33 44 49 55 55 59 62 62 63 64 62 56 54 52 52 48 48 42 36 35
28 31 28 26 27 55 47 29 12 9 9 10 3 6 11 11 12 7 6 4 3 4 3 5 4 4 9 9 8 4 5 23 28 32 45 48 46 45 47 54 55 55 56 51 44 45 44 43 42 40 38 32 29 28
17 10 26 40 49 24 11 8 6 9 9 12 19 14 12 15 12 7 6 6 7 6 4 3 3 6 5 1 4 6 26 26 34 39 45 39 38 43 45 46 50 46 40 36 37 34 33 27 30 30 27 24 24 23
41 32 23 23 26 11 10 11 10 15 5 8 12 12 12 11 13 14 11 10 5 3 4 2 3 5 2 6 18 26 23 24 29 39 43 40 41 42 42 43 38 33 29 31 29 25 27 28 27 26 22 21 23 25
18 24 21 21 22 16 13 7 13 10 13 13 16 5 10 8 6 6 6 5 4 5 2 4 4 4 15 16 10 14 17 19 23 23 33 41 37 35 39 34 29 28 32 37 37 32 30 31 27 25 26 27 25 24
12 17 15 12 11 10 14 16 15 11 10 13 8 7 8 3 4 4 5 9 4 3 3 0 7 9 5 4 7 12 15 12 10 11 11 15 25 35 40 41 40 39 40 40 38 37 36 31 28 29 31 32 32 33
17 11 8 10 10 15 8 10 8 7 7 2 7 6 4 3 4 4 4 2 2 2 2 2 2 5 8 9 10 10 10 9 13 14 15 16 18 25 33 41 45 45 46 47 46 45 43 38 37 37 36 37 39 40
18 10 15 13 17 3 5 10 7 8 7 4 5 3 2 2 2 4 3 5 6 4 4 4 8 11 13 13 17 18 18 18 20 20 18 16 19 23 27 32 36 37 40 41 43 45 45 45 42 40 38 38 37 38
8 20 14 11 15 10 9 8 9 7 4 3 5 1 2 2 2 2 5 5 16 13 13 13 13 14 14 13 11 12 12 12 14 17 19 20 18 15 19 25 28 32 31 32 39 40 40 39 40 39 38 38 38 36
15 16 9 5 7 8 3 5 2 3 2 4 1 1 1 3 1 7 5 17 19 21 21 18 16 14 11 8 5 3 4 6 7 8 11 16 19 23 24 25 26 27 29 30 30 30 30 29 29 29 30 30 29 27
9 6 10 12 4 5 7 7 2 3 3 4 3 1 2 3 7 6 9 18 17 20 20 17 15 12 10 7 4 4 7 11 11 11 13 12 13 14 20 23 25 26 26 26 27 27 27 26 24 23 22 21 20 19
8 8 6 9 8 8 7 3 3 3 3 2 3 3 6 8 7 4 10 18 18 21 21 19 15 10 6 2 3 6 9 10 12 10 9 7 9 10 16 19 22 25 27 28 27 26 25 25 24 22 21 20 20 20
9 5 2 6 5 6 3 6 6 4 4 5 6 4 6 7 6 6 11 20 23 23 22 19 15 12 8 5 7 8 9 9 8 9 10 10 10 12 13 16 19 21 23 24 26 28 28 28 26 25 24 22 21 20
8 8 4 3 5 1 1 3 1 5 7 10 8 9 10 11 8 13 19 26 29 27 21 21 20 18 15 13 10 10 12 11 11 12 15 14 15 15 18 19 21 25 28 29 30 29 29 30 29 29 28 27 26 24
5 2 3 2 4 3 2 7 13 13 10 8 16 13 13 13 10 12 19 22 25 28 31 30 27 24 23 19 19 20 16 16 15 19 23 24 25 25 26 27 29 32 36 39 39 39 39 37 35 34 32 30 28 30
5 3 4 2 3 2 5 5 4 3 5 5 5 7 7 8 8 4 5 19 31 34 29 27 28 23 19 23 27 27 25 26 28 29 31 33 32 30 32 34 36 39 43 45 45 44 43 43 41 37 36 33 32 32
3 2 2 3 2 1 5 11 1 5 5 5 5 5 5 6 9 4 4 3 4 7 11 17 22 24 27 28 28 27 28 29 29 30 31 31 31 33 38 42 46 49 51 51 49 47 46 44 43 40 38 37 37 38
Wind_Direction_500mb
274 273 273 274 273 270 270 268 268 262 262 264 261 266 267 260 253 246 258 250 244 252 265 252 241 233 210 191 156 260 339 273 311 190 176 262 287 4 323 326 314 279 297 284 291 268 274 8 7 20 307 308 347 341
271 274 274 276 274 275 282 260 266 264 262 261 262 264 261 259 257 248 250 253 255 245 256 267 265 256 245 247 250 228 220 171 237 91 358 20 326 318 295 284 274 282 327 307 318 320 316 305 313 321 314 335 329 327
270 272 274 272 274 274 271 269 267 268 268 263 259 260 259 257 255 248 250 256 255 257 266 261 256 259 247 247 243 227 229 245 235 237 191 212 221 181 230 267 282 280 286 282 315 295 296 298 310 339 348 339 333 329
264 265 271 274 276 272 266 265 265 264 261 261 260 259 260 261 256 249 249 251 245 240 244 268 267 245 259 243 238 237 248 251 250 237 201 183 181 218 236 242 236 253 290 254 277 282 287 287 300 328 325 320 324 325
266 265 264 266 274 271 273 263 264 262 258 258 258 259 261 259 252 252 254 255 249 230 265 266 275 248 265 247 235 235 234 239 233 231 198 216 232 238 240 257 256 253 257 266 273 285 292 294 311 323 316 324 325 317
266 269 266 267 266 272 271 271 269 269 263 260 260 260 261 253 247 252 266 263 258 247 246 248 262 258 257 251 235 247 243 229 217 205 222 233 242 241 242 222 244 251 254 256 270 283 290 297 296 308 320 324 323 320
261 266 269 269 267 269 270 271 268 265 264 260 265 262 256 248 243 236 223 241 290 232 225 236 257 253 242 239 239 241 238 229 226 232 236 242 251 252 253 259 264 261 266 271 276 289 292 282 299 310 321 318 319 319
257 261 267 268 263 265 268 268 269 265 261 263 262 256 250 252 253 251 249 252 253 238 244 224 227 277 186 192 207 230 224 222 223 229 236 231 250 238 249 245 256 266 266 274 257 275 284 296 302 307 316 318 319 318
257 256 264 264 261 263 265 267 269 265 263 260 255 248 253 250 253 255 262 259 244 226 228 202 167 230 194 212 211 188 204 200 231 216 232 215 228 228 229 257 271 246 264 286 289 299 307 302 309 312 314 317 314 310
258 254 262 265 260 261 260 262 265 264 258 252 238 224 215 232 257 251 214 205 208 225 214 206 179 203 171 166 241 128 202 214 221 235 230 213 238 246 272 252 178 288 297 307 327 329 323 317 314 314 313 309 302 299
260 256 260 262 258 258 261 260 260 261 249 237 198 186 224 252 239 219 231 190 175 230 208 190 179 172 217 154 204 205 190 201 228 252 159 262 277 238 108 91 6 328 323 321 312 307 308 306 306 308 309 307 303 299
265 261 260 260 260 257 255 255 252 247 244 214 178 176 196 207 204 202 215 176 206 212 215 162 204 196 180 194 141 202 204 194 238 151 119 246 241 64 27 352 331 326 322 319 318 316 315 309 310 308 305 302 302 304
273 268 265 261 258 253 253 248 248 238 234 174 172 179 182 199 221 191 176 215 235 219 184 167 209 169 180 190 181 173 216 222 81 98 217 219 67 6 351 337 327 326 327 323 321 321 320 318 318 310 306 308 307 306
263 263 261 257 252 249 247 245 235 229 202 158 166 192 192 195 223 203 181 177 250 296 125 139 112 163 174 152 214 231 224 141 213 212 230 25 344 338 337 334 329 326 327 324 323 324 323 319 314 316 314 316 313 308
262 260 262 257 248 243 239 231 228 192 153 172 175 202 184 111 87 119 114 112 59 64 92 95 335 205 266 258 219 105 329 237 210 223 144 322 326 329 324 325 325 324 324 322 325 324 323 322 323 321 321 318 318 321
261 274 260 252 233 226 232 220 176 149 139 174 136 135 85 80 10 80 71 96 72 128 131 106 142 199 235 196 182 219 155 220 234 197 311 321 318 322 324 324 323 322 321 321 323 322 322 325 325 319 324 331 331 332
255 262 268 240 240 236 204 149 118 93 122 109 64 90 95 84 109 115 110 107 87 128 176 174 177 216 340 240 237 357 221 160 308 314 321 322 322 324 326 324 325 325 324 324 322 325 325 329 325 327 331 341 343 339
249 266 258 245 158 144 113 93 104 105 81 68 78 65 88 96 105 116 125 96 118 127 108 205 355 217 216 212 250 231 345 310 320 321 323 330 330 331 330 326 329 330 325 324 327 330 333 332 332 336 342 348 353 3
277 283 172 174 133 100 103 89 99 95 79 100 112 110 101 109 103 110 135 128 140 169 183 131 190 219 218 165 178 279 317 319 312 317 327 339 344 342 340 340 335 330 333 338 343 338 339 342 345 348 356 3 20 27
120 123 119 126 131 87 75 56 72 90 101 113 109 105 101 89 100 92 102 101 109 115 63 61 176 170 163 282 304 301 308 322 325 323 332 352 359 354 356 345 344 349 356 8 5 7 8 14 15 17 24 33 46 49
124 119 130 141 73 74 90 93 73 83 108 86 113 81 91 98 79 61 54 79 79 38 127 144 158 284 299 301 296 309 322 324 319 311 319 331 358 5 4 9 17 22 27 26 16 24 30 32 30 38 50 55 60 69
118 125 116 82 75 71 79 55 90 98 82 119 104 84 82 45 40 56 61 56 79 122 124 260 311 325 359 360 359 341 337 337 333 338 344 357 12 25 24 28 35 38 40 37 33 36 38 41 49 59 67 71 77 81
132 124 70 60 81 50 32 79 81 52 96 151 106 59 19 33 68 87 64 56 134 158 328 5 63 80 74 62 37 32 41 52 59 58 58 56 52 54 49 43 43 44 47 48 50 49 51 53 59 65 71 77 81 83
111 62 38 43 40 69 57 35 60 69 86 69 77 88 353 199 115 56 229 252 189 203 179 135 139 131 108 95 83 77 71 67 70 68 67 64 57 49 45 46 46 46 46 49 51 52 53 54 56 59 63 67 67 69
102 12 20 14 26 51 45 24 3 56 92 1 101 133 266 137 113 228 226 221 192 196 180 163 150 138 131 117 99 77 66 56 55 54 50 46 45 46 42 34 29 28 30 38 40 42 45 47 48 49 52 54 55 56
69 10 49 4 4 80 26 77 48 153 58 80 66 284 133 104 143 240 226 184 185 187 181 175 170 158 143 134 116 70 15 345 323 319 340 353 7 14 15 15 19 22 19 21 22 24 25 27 30 34 39 41 42 45
72 353 41 40 66 89 64 48 60 78 83 155 245 13 136 208 242 248 175 184 183 180 174 171 169 161 147 128 92 17 359 0 344 326 318 316 341 356 6 9 12 12 13 14 13 11 12 11 11 11 9 5 6 9
87 42 87 355 56 44 124 66 81 163 196 138 78 178 191 206 241 198 191 184 180 179 175 173 174 183 194 225 320 333 318 316 337 336 336 332 340 349 358 2 6 8 5 3 3 2 3 2 3 0 359 356 351 346
52 48 32 29 45 46 150 157 208 191 183 190 159 247 257 248 248 253 205 190 192 195 195 197 202 207 221 263 300 308 317 313 311 332 335 335 348 349 355 357 360 359 359 360 356 353 349 348 347 344 342 340 338 334
20 12 72 54 96 275 177 193 250 220 233 236 267 280 272 270 273 237 213 202 205 210 213 221 227 234 241 261 282 288 304 308 303 313 324 329 328 328 327 326 326 327 329 333 335 337 335 331 327 324 321 319 316 314
344 345 85 102 200 163 218 286 287 274 256 256 248 255 277 300 293 239 221 211 212 219 227 235 241 248 254 264 279 286 289 292 305 315 316 317 317 315 314 313 314 314 315 317 318 318 318 318 318 317 315 311 309 307
358 42 126 48 285 255 307 327 274 253 238 248 243 250 280 285 278 247 231 223 229 235 242 245 249 258 269 269 270 280 288 288 293 299 300 305 308 309 307 306 308 309 309 308 308 309 309 310 311 312 312 313 314 312
328 341 349 333 345 37 342 339 18 326 245 255 238 253 254 261 248 235 231 231 240 235 236 242 250 251 256 269 280 284 286 289 291 293 296 299 304 309 308 309 309 309 308 307 306 305 304 303 302 303 304 307 310 311
Wind_Speed_850mb
49 50 51 46 51 52 61 61 56 55 57 52 49 48 47 44 44 42 52 45 47 37 60 45 34 28 16 12 6 9 11 8 3 3 6 5 5 5 11 18 24 15 11 20 25 41 50 49 16 16 31 46 41 46
51 51 53 55 58 55 49 61 57 54 55 55 51 48 47 45 48 46 55 53 47 51 43 36 40 55 67 66 51 26 18 13 8 3 3 4 10 8 24 24 20 16 5 8 9 15 45 46 51 57 18 22 34 44
54 54 54 54 54 55 58 52 61 61 57 56 53 51 48 47 51 48 53 47 42 45 58 69 59 76 71 67 61 36 31 37 30 37 8 7 7 4 3 8 11 10 26 16 23 25 40 73 61 32 49 47 51 55
59 58 56 55 55 58 55 55 57 63 64 58 55 50 53 53 53 45 50 52 50 24 13 38 45 45 48 45 65 82 80 54 40 33 12 7 6 14 8 12 11 15 22 14 31 34 38 39 43 48 41 46 57 62
62 61 58 54 53 55 57 54 56 59 57 58 58 58 55 53 49 49 49 55 56 51 8 12 26 31 34 42 51 49 57 65 47 18 7 7 11 14 13 14 19 30 34 23 31 47 26 43 57 42 38 38 46 56
61 60 60 58 54 54 60 59 54 54 54 51 48 49 52 48 46 40 39 54 61 69 27 9 30 49 51 61 69 66 64 66 43 18 10 19 52 18 8 9 21 51 68 65 32 42 42 52 46 42 62 70 75 69
61 60 59 60 57 52 58 60 55 53 50 49 51 52 48 47 46 50 19 8 16 38 29 6 6 17 58 53 60 61 58 41 39 28 20 36 39 34 17 27 38 67 65 47 39 42 37 35 31 72 60 72 87 93
59 55 58 59 57 55 55 56 55 54 52 52 53 49 45 44 48 58 61 60 45 32 21 7 4 2 15 13 16 43 36 33 28 30 21 16 26 21 16 24 58 52 48 45 27 25 28 50 60 66 70 68 88 99
60 55 56 61 59 54 55 57 52 50 49 46 44 39 39 44 47 73 64 63 60 58 8 11 9 9 16 17 15 16 19 5 14 11 16 14 11 12 19 35 39 18 13 22 38 39 36 32 66 74 68 78 73 94
61 57 57 58 54 52 53 54 50 46 42 39 37 21 12 21 35 33 17 22 27 21 27 6 13 4 19 14 2 4 11 6 6 10 14 13 24 49 42 14 3 5 16 25 37 33 59 74 67 87 83 75 69 81
57 51 53 56 53 52 52 50 47 43 36 40 25 23 16 17 15 14 13 14 11 5 14 18 23 9 27 7 12 17 5 5 7 10 11 4 6 4 6 5 5 10 18 27 35 45 53 61 74 84 99 91 83 76
51 52 54 51 52 51 50 50 46 44 45 34 18 16 12 15 16 11 6 3 6 11 6 7 15 24 13 16 6 8 7 5 9 3 7 5 11 12 13 16 21 30 41 48 52 62 64 62 69 79 86 84 84 83
48 47 49 51 52 51 52 50 51 48 49 40 16 13 13 12 13 12 15 4 2 6 15 12 4 12 11 13 3 3 10 11 3 3 8 7 10 19 30 37 45 51 58 65 71 72 73 76 73 69 80 82 81 80
48 48 48 48 48 49 49 51 47 48 26 16 14 13 11 8 7 6 7 7 2 3 16 15 4 6 8 5 6 8 8 4 6 6 12 1 17 39 45 53 62 70 71 75 78 80 79 71 74 72 69 72 74 77
38 37 42 46 47 48 45 42 49 51 15 10 10 9 7 9 10 8 14 11 7 5 7 4 1 5 3 3 6 2 5 9 10 10 2 13 37 46 50 57 64 71 75 78 77 77 76 75 72 72 67 64 58 54
32 34 39 35 36 38 37 42 32 36 17 11 6 7 2 6 2 6 10 8 6 4 4 2 3 3 9 7 7 12 9 12 7 1 20 35 45 52 58 59 63 66 67 71 70 68 66 64 63 65 59 49 42 43
27 36 28 27 29 31 41 56 17 9 9 8 2 16 14 15 10 6 5 5 3 3 4 2 7 17 5 5 6 2 7 1 6 28 33 44 49 55 55 59 62 62 63 64 62 56 54 52 52 48 48 42 36 35
28 31 28 26 27 55 47 29 12 9 9 10 3 6 11 11 12 7 6 4 3 4 3 5 4 4 9 9 8 4 5 23 28 32 45 48 46 45 47 54 55 55 56 51 44 45 44 43 42 40 38 32 29 28
17 10 26 40 49 24 11 8 6 9 9 12 19 14 12 15 12 7 6 6 7 6 4 3 3 6 5 1 4 6 26 26 34 39 45 39 38 43 45 46 50 46 40 36 37 34 33 27 30 30 27 24 24 23
41 32 23 23 26 11 10 11 10 15 5 8 12 12 12 11 13 14 11 10 5 3 4 2 3 5 2 6 18 26 23 24 29 39 43 40 41 42 42 43 38 33 29 31 29 25 27 28 27 26 22 21 23 25
18 24 21 21 22 16 13 7 13 10 13 13 16 5 10 8 6 6 6 5 4 5 2 4 4 4 15 16 10 14 17 19 23 23 33 41 37 35 39 34 29 28 32 37 37 32 30 31 27 25 26 27 25 24
12 17 15 12 11 10 14 16 15 11 10 13 8 7 8 3 4 4 5 9 4 3 3 0 7 9 5 4 7 12 15 12 10 11 11 15 25 35 40 41 40 39 40 40 38 37 36 31 28 29 31 32 32 33
17 11 8 10 10 15 8 10 8 7 7 2 7 6 4 3 4 4 4 2 2 2 2 2 2 5 8 9 10 10 10 9 13 14 15 16 18 25 33 41 45 45 46 47 46 45 43 38 37 37 36 37 39 40
18 10 15 13 17 3 5 10 7 8 7 4 5 3 2 2 2 4 3 5 6 4 4 4 8 11 13 13 17 18 18 18 20 20 18 16 19 23 27 32 36 37 40 41 43 45 45 45 42 40 38 38 37 38
8 20 14 11 15 10 9 8 9 7 4 3 5 1 2 2 2 2 5 5 16 13 13 13 13 14 14 13 11 12 12 12 14 17 19 20 18 15 19 25 28 32 31 32 39 40 40 39 40 39 38 38 38 36
15 16 9 5 7 8 3 5 2 3 2 4 1 1 1 3 1 7 5 17 19 21 21 18 16 14 11 8 5 3 4 6 7 8 11 16 19 23 24 25 26 27 29 30 30 30 30 29 29 29 30 30 29 27
9 6 10 12 4 5 7 7 2 3 3 4 3 1 2 3 7 6 9 18 17 20 20 17 15 12 10 7 4 4 7 11 11 11 13 12 13 14 20 23 25 26 26 26 27 27 27 26 24 23 22 21 20 19
8 8 6 9 8 8 7 3 3 3 3 2 3 3 6 8 7 4 10 18 18 21 21 19 15 10 6 2 3 6 9 10 12 10 9 7 9 10 16 19 22 25 27 28 27 26 25 25 24 22 21 20 20 20
9 5 2 6 5 6 3 6 6 4 4 5 6 4 6 7 6 6 11 20 23 23 22 19 15 12 8 5 7 8 9 9 8 9 10 10 10 12 13 16 19 21 23 24 26 28 28 28 26 25 24 22 21 20
8 8 4 3 5 1 1 3 1 5 7 10 8 9 10 11 8 13 19 26 29 27 21 21 20 18 15 13 10 10 12 11 11 12 15 14 15 15 18 19 21 25 28 29 30 29 29 30 29 29 28 27 26 24
5 2 3 2 4 3 2 7 13 13 10 8 16 13 13 13 10 12 19 22 25 28 31 30 27 24 23 19 19 20 16 16 15 19 23 24 25 25 26 27 29 32 36 39 39 39 39 37 35 34 32 30 28 30
5 3 4 2 3 2 5 5 4 3 5 5 5 7 7 8 8 4 5 19 31 34 29 27 28 23 19 23 27 27 25 26 28 29 31 33 32 30 32 34 36 39 43 45 45 44 43 43 41 37 36 33 32 32
3 2 2 3 2 1 5 11 1 5 5 5 5 5 5 6 9 4 4 3 4 7 11 17 22 24 27 28 28 27 28 29 29 30 31 31 31 33 38 42 46 49 51 51 49 47 46 44 43 40 38 37 37 38
Wind_Direction_850mb
274 273 273 274 273 270 270 268 268 262 262 264 261 266 267 260 253 246 258 250 244 252 265 252 241 233 210 191 156 260 339 273 311 190 176 262 287 4 323 326 314 279 297 284 291 268 274 8 7 20 307 308 347 341
271 274 274 276 274 275 282 260 266 264 262 261 262 264 261 259 257 248 250 253 255 245 256 267 265 256 245 247 250 228 220 171 237 91 358 20 326 318 295 284 274 282 327 307 318 320 316 305 313 321 314 335 329 327
270 272 274 272 274 274 271 269 267 268 268 263 259 260 259 257 255 248 250 256 255 257 266 261 256 259 247 247 243 227 229 245 235 237 191 212 221 181 230 267 282 280 286 282 315 295 296 298 310 339 348 339 333 329
264 265 271 274 276 272 266 265 265 264 261 261 260 259 260 261 256 249 249 251 245 240 244 268 267 245 259 243 238 237 248 251 250 237 201 183 181 218 236 242 236 253 290 254 277 282 287 287 300 328 325 320 324 325
266 265 264 266 274 271 273 263 264 262 258 258 258 259 261 259 252 252 254 255 249 230 265 266 275 248 265 247 235 235 234 239 233 231 198 216 232 238 240 257 256 253 257 266 273 285 292 294 311 323 316 324 325 317
266 269 266 267 266 272 271 271 269 269 263 260 260 260 261 253 247 252 266 263 258 247 246 248 262 258 257 251 235 247 243 229 217 205 222 233 242 241 242 222 244 251 254 256 270 283 290 297 296 308 320 324 323 320
261 266 269 269 267 269 270 271 268 265 264 260 265 262 256 248 243 236 223 241 290 232 225 236 257 253 242 239 239 241 238 229 226 232 236 242 251 252 253 259 264 261 266 271 276 289 292 282 299 310 321 318 319 319
257 261 267 268 263 265 268 268 269 265 261 263 262 256 250 252 253 251 249 252 253 238 244 224 227 277 186 192 207 230 224 222 223 229 236 231 250 238 249 245 256 266 266 274 257 275 284 296 302 307 316 318 319 318
257 256 264 264 261 263 265 267 269 265 263 260 255 248 253 250 253 255 262 259 244 226 228 202 167 230 194 212 211 188 204 200 231 216 232 215 228 228 229 257 271 246 264 286 289 299 307 302 309 312 314 317 314 310
258 254 262 265 260 261 260 262 265 264 258 252 238 224 215 232 257 251 214 205 208 225 214 206 179 203 171 166 241 128 202 214 221 235 230 213 238 246 272 252 178 288 297 307 327 329 323 317 314 314 313 309 302 299
260 256 260 262 258 258 261 260 260 261 249 237 198 186 224 252 239 219 231 190 175 230 208 190 179 172 217 154 204 205 190 201 228 252 159 262 277 238 108 91 6 328 323 321 312 307 308 306 306 308 309 307 303 299
265 261 260 260 260 257 255 255 252 247 244 214 178 176 196 207 204 202 215 176 206 212 215 162 204 196 180 194 141 202 204 194 238 151 119 246 241 64 27 352 331 326 322 319 318 316 315 309 310 308 305 302 302 304
273 268 265 261 258 253 253 248 248 238 234 174 172 179 182 199 221 191 176 215 235 219 184 167 209 169 180 190 181 173 216 222 81 98 217 219 67 6 351 337 327 326 327 323 321 321 320 318 318 310 306 308 307 306
263 263 261 257 252 249 247 245 235 229 202 158 166 192 192 195 223 203 181 177 250 296 125 139 112 163 174 152 214 231 224 141 213 212 230 25 344 338 337 334 329 326 327 324 323 324 323 319 314 316 314 316 313 308
262 260 262 257 248 243 239 231 228 192 153 172 175 202 184 111 87 119 114 112 59 64 92 95 335 205 266 258 219 105 329 237 210 223 144 322 326 329 324 325 325 324 324 322 325 324 323 322 323 321 321 318 318 321
261 274 260 252 233 226 232 220 176 149 139 174 136 135 85 80 10 80 71 96 72 128 131 106 142 199 235 196 182 219 155 220 234 197 311 321 318 322 324 324 323 322 321 321 323 322 322 325 325 319 324 331 331 332
255 262 268 240 240 236 204 149 118 93 122 109 64 90 95 84 109 115 110 107 87 128 176 174 177 216 340 240 237 357 221 160 308 314 321 322 322 324 326 324 325 325 324 324 322 325 325 329 325 327 331 341 343 339
249 266 258 245 158 144 113 93 104 105 81 68 78 65 88 96 105 116 125 96 118 127 108 205 355 217 216 212 250 231 345 310 320 321 323 330 330 331 330 326 329 330 325 324 327 330 333 332 332 336 342 348 353 3
277 283 172 174 133 100 103 89 99 95 79 100 112 110 101 109 103 110 135 128 140 169 183 131 190 219 218 165 178 279 317 319 312 317 327 339 344 342 340 340 335 330 333 338 343 338 339 342 345 348 356 3 20 27
120 123 119 126 131 87 75 56 72 90 101 113 109 105 101 89 100 92 102 101 109 115 63 61 176 170 163 282 304 301 308 322 325 323 332 352 359 354 356 345 344 349 356 8 5 7 8 14 15 17 24 33 46 49
124 119 130 141 73 74 90 93 73 83 108 86 113 81 91 98 79 61 54 79 79 38 127 144 158 284 299 301 296 309 322 324 319 311 319 331 358 5 4 9 17 22 27 26 16 24 30 32 30 38 50 55 60 69
118 125 116 82 75 71 79 55 90 98 82 119 104 84 82 45 40 56 61 56 79 122 124 260 311 325 359 360 359 341 337 337 333 338 344 357 12 25 24 28 35 38 40 37 33 36 38 41 49 59 67 71 77 81
132 124 70 60 81 50 32 79 81 52 96 151 106 59 19 33 68 87 64 56 134 158 328 5 63 80 74 62 37 32 41 52 59 58 58 56 52 54 49 43 43 44 47 48 50 49 51 53 59 65 71 77 81 83
111 62 38 43 40 69 57 35 60 69 86 69 77 88 353 199 115 56 229 252 189 203 179 135 139 131 108 95 83 77 71 67 70 68 67 64 57 49 45 46 46 46 46 49 51 52 53 54 56 59 63 67 67 69
102 12 20 14 26 51 45 24 3 56 92 1 101 133 266 137 113 228 226 221 192 196 180 163 150 138 131 117 99 77 66 56 55 54 50 46 45 46 42 34 29 28 30 38 40 42 45 47 48 49 52 54 55 56
69 10 49 4 4 80 26 77 48 153 58 80 66 284 133 104 143 240 226 184 185 187 181 175 170 158 143 134 116 70 15 345 323 319 340 353 7 14 15 15 19 22 19 21 22 24 25 27 30 34 39 41 42 45
72 353 41 40 66 89 64 48 60 78 83 155 245 13 136 208 242 248 175 184 183 180 174 171 169 161 147 128 92 17 359 0 344 326 318 316 341 356 6 9 12 12 13 14 13 11 12 11 11 11 9 5 6 9
87 42 87 355 56 44 124 66 81 163 196 138 78 178 191 206 241 198 191 184 180 179 175 173 174 183 194 225 320 333 318 316 337 336 336 332 340 349 358 2 6 8 5 3 3 2 3 2 3 0 359 356 351 346
52 48 32 29 45 46 150 157 208 191 183 190 159 247 257 248 248 253 205 190 192 195 195 197 202 207 221 263 300 308 317 313 311 332 335 335 348 349 355 357 360 359 359 360 356 353 349 348 347 344 342 340 338 334
20 12 72 54 96 275 177 193 250 220 233 236 267 280 272 270 273 237 213 202 205 210 213 221 227 234 241 261 282 288 304 308 303 313 324 329 328 328 327 326 326 327 329 333 335 337 335 331 327 324 321 319 316 314
344 345 85 102 200 163 218 286 287 274 256 256 248 255 277 300 293 239 221 211 212 219 227 235 241 248 254 264 279 286 289 292 305 315 316 317 317 315 314 313 314 314 315 317 318 318 318 318 318 317 315 311 309 307
358 42 126 48 285 255 307 327 274 253 238 248 243 250 280 285 278 247 231 223 229 235 242 245 249 258 269 269 270 280 288 288 293 299 300 305 308 309 307 306 308 309 309 308 308 309 309 310 311 312 312 313 314 312
328 341 349 333 345 37 342 339 18 326 245 255 238 253 254 261 248 235 231 231 240 235 236 242 250 251 256 269 280 284 286 289 291 293 296 299 304 309 308 309 309 309 308 307 306 305 304 303 302 303 304 307 310 311